Location: *
(45.5667°S, 177.5167°W)
Time: 16:16:34
(UTC+00:00)

COSMOS 2406 - Pass Details

Date: 29 May 2022
Orbit: 842 x 864 km, 71.0° (Epoch: 29 June)

Event Time Altitude Azimuth Distance (km) Brightness Sun altitude
Rises 04:44:15 0° 354° (N) 3,403 6.8 -4.9°
Reaches altitude 10° 04:46:46 10° 360° (N) 2,473 6.0 -5.3°
Maximum altitude 04:52:10 47° 72° (ENE) 1,121 3.6 -6.2°
Drops below altitude 10° 04:57:38 10° 144° (SE) 2,496 5.1 -7.0°
Enters shadow 04:59:22 - 147° (SSE) 3,135 5.7 -7.3°
